Location: Noordwijk
(52.2400°N, 4.4500°E)
Time: 02:06:01
(UTC+00:00)

PCSat - Pass Details

Date: 10 December 2022
Orbit: 785 x 793 km, 67.0° (Epoch: 28 January)

Event Time Altitude Azimuth Distance (km) Brightness Sun altitude
Rises 19:56:49 0° 263° (W) 3,283 13.6 -39.4°
Reaches altitude 10° 19:59:37 10° 276° (W) 2,358 12.7 -39.9°
Enters shadow 20:01:53 20° 297° (WNW) 1,770 11.9 -40.2°
